Retour au catalogue

STARLINK-11580

ActifCommunicationsVLEO
NORAD 63011·PAYLOAD·🇺🇸 United States

Lancé Feb 15, 2025 depuis Cape Canaveral Space Force Station

Loading…

Prochains Passages (prochaines 24 heures)

TLE

FraisSource: CelesTrak SupGP

Époque: Sep 15, 2026, 02:54 UTC

1 63011C 25032G   26258.12131944  .00110690  00000+0  85928-3 0  2580
2 63011  43.0002 133.2937 0001651 269.0185 280.5444 15.70794853    11

Suivez STARLINK-11580 en temps réel avec AllMySat

Download on the App Store